Regional Weather Roundup
Issued by NWS

Home | Current Version | Previous Version | Graphics & Text | Print | Product List | Glossary On
Versions: 1 2 3 4 5 6 7 8 9 10 11 12 13 14 15 16 17 18 19 20 21 22 23 24 25 26 27 28 29 30 31 32 33 34 35 36 37 38 39 40 41 42 43 44 45 46 47 48 49 50
000
ASUS45 KSLC 170310
RWRUT

UTAH REGIONAL WEATHER ROUNDUP
NATIONAL WEATHER SERVICE SALT LAKE CITY UT
800 PM MST TUE DEC 16 2014

UTZ001>011-023>025-170400-

NORTHERN UTAH

CITY           SKY/WX    TMP DP  RH WIND       PRES   REMARKS
BRIGHAM CITY   CLOUDY    37  31  77 CALM      30.02S
HILL AFB       MOCLDY    35  28  76 NE5       30.00S WCI  31
LOGAN          CLOUDY    35  29  78 SE6       30.01R WCI  30
OGDEN          CLOUDY    36  29  75 NE3       29.99F
PROVO AIRPORT  MOCLDY    39  25  56 VRB3      30.01R
SALT LAKE CITY MOCLDY    34  30  85 CALM      30.00R
VERNAL         CLOUDY    25  24  96 CALM      30.10S FOG
WENDOVER       CLEAR     28  25  86 W3        30.03R
HEBER CITY     CLOUDY    36  21  55 CALM      29.99S
WEST JORDAN    MOCLDY    34  30  86 CALM      30.01R

$$

UTZ012>022-026-027-170400-

SOUTHERN/CENTRAL UTAH

CITY           SKY/WX    TMP DP  RH WIND       PRES   REMARKS
BLANDING       CLOUDY    33  27  79 N3        30.13S
BRYCE CANYON   MOCLDY    28  20  71 CALM      30.04S
CEDAR CITY     CLOUDY    36  22  56 S5        29.99S WCI  32
DELTA          MOCLDY    38  26  62 S9        29.99S WCI  31
MILFORD        CLOUDY    37  26  64 S9        29.99S WCI  30
MOAB/CYNLANDS  MOCLDY    35  30  82 NW8       30.06S WCI  29
PRICE          MOCLDY    29  20  69 NE7       30.06S WCI  22
ST GEORGE      MOCLDY    45  32  61 SW5       30.01S
KANAB          MOCLDY    37  27  65 NW10      30.06S WCI  30

$$

REGIONAL REPORTS     COLORADO/ARIZONA

CITY           SKY/WX    TMP DP  RH WIND       PRES   REMARKS
CRAIG, CO      MOCLDY    14  12  92 SE3       30.07F
GRAND JUNCTION CLOUDY    33  29  85 E5        30.06F WCI  29
RIFLE          MOCLDY    28  24  85 CALM      30.08F
MONTROSE       MOCLDY    32  26  78 E5        30.08S WCI  27
CORTEZ         MOCLDY    36  24  62 N3        30.07S
PAGE, AZ       CLOUDY    43  25  49 CALM      30.03F
GRAND CANYON   CLOUDY    31  25  78 CALM      30.04S
KINGMAN        CLOUDY    44  36  73 S5        30.01R
FLAGSTAFF      MOCLDY    29  23  78 CALM      30.05S

$$

REGIONAL REPORTS    NEVADA/IDAHO/WYOMING

CITY           SKY/WX    TMP DP  RH WIND       PRES   REMARKS
LAS VEGAS, NV  CLOUDY    52  34  50 S5        29.96S
ELY            PTCLDY    26  22  84 CALM      30.00R
ELKO           CLEAR     30  27  88 E6        29.97S WCI  24
POCATELLO, ID  CLOUDY    32  32 100 CALM      30.01R FOG
BURLEY         CLOUDY    34  31  88 E3        29.98S
EVANSTON, WY   CLOUDY    28  19  69 E6        29.99R WCI  22
ROCK SPRINGS   PTCLDY    21  16  81 CALM      30.01S

$$


USA.gov is the U.S. government's official web portal to all federal, state and local government web resources and services.